Simultaneous Nadir Overpasses (SNOs) Predictions

Prediction of SNOs between LANDSAT-8 and METOP-B Satellite Orbit:

Table of predicted SNOs for the next 14.0 days since TLE Epoch: 8/28/2021
Index Date (LANDSAT-8) Time (LANDSAT-8) Lat,Lon (LANDSAT-8) SZA (LANDSAT-8 ) Date (METOP-B) Time (METOP-B) Lat,Lon (METOP-B) SZA (METOP-B ) Distance(km) Time Diff (sec)
1 08/29/2021 18:26:44 -81.11, 123.24 105.89 08/29/2021 18:25:37 -81.11, 123.22 105.93 0.77 67
2 08/29/2021 19:16:10 81.12, -69.04 74.14 08/29/2021 19:16:17 81.12, -69.05 74.14 0.42 7
3 09/01/2021 14:01:01 -81.10,-170.54 104.89 09/01/2021 14:00:00 -81.10,-170.52 104.91 0.49 61
4 09/01/2021 14:50:26 81.13, -2.49 75.19 09/01/2021 14:50:39 81.13, -2.45 75.20 0.61 13
5 09/04/2021 09:35:17 -81.11,-103.97 103.82 09/04/2021 09:34:22 -81.11,-103.91 103.84 1.05 55
6 09/04/2021 10:24:42 81.13, 64.07 76.26 09/04/2021 10:25:01 81.13, 64.13 76.27 1.09 19
7 09/07/2021 05:09:32 -81.12, -37.40 102.74 09/07/2021 05:08:43 -81.12, -37.31 102.75 1.54 49
8 09/07/2021 05:58:57 81.14, 130.62 77.34 09/07/2021 05:59:22 81.14, 130.69 77.36 1.34 25
9 09/10/2021 00:43:49 -81.10, 28.81 101.69 09/10/2021 00:43:06 -81.11, 28.90 101.69 1.82 43



Historial Predications of SNOs between LANDSAT-8 and METOP-B
